Main page
METAR-TAF:

METAR-TAF

Airports :

McMinn County Airport

Athens, Tennessee, United States

latitude: 35-23-50N, longitude: 084-33-45W, elevation: 859 ft

Current weather observation

The report was made 12 minutes ago, at 03:55 UTC
Calm wind
Temperature 70°F
Humidity 88%
Pressure 30.12 in. Hg
Visibility: 10 miles
Few clouds at a height of 4800 ft
Broken clouds at a height of 5500 ft

METAR: KMMI 030355Z AUTO 00000KT 10SM FEW048 BKN055 21/19 A3012 RMK A01

Time: 23:07 (04:07 UTC)


TAF: missing

Weather observations and forecasts of more than 4000 airports (METAR and TAF reports).

The available stations are represented by yellow and red dots on the map.

Hover mouse over dot to see the name of the station.

Then click to see weather observations and forecasts.

To change the map : click on the green buttons with a black cross to zoom in, on the green button with a dash to zoom out, or on the green arrows for adjacent maps.


METAR-TAF: